Regional Weather Roundup
Issued by NWS

Home | Current Version | Previous Version | Text Only | Print | Product List | Glossary On
Versions: 1 2 3 4 5 6 7 8 9 10 11 12 13 14 15 16 17 18 19 20 21 22 23 24 25 26 27
000
ASCA42 TJSJ 211710
RWRPR
PUERTO RICO/U.S. VIRGIN ISLANDS HOURLY WEATHER ROUNDUP
NATIONAL WEATHER SERVICE SAN JUAN PR
100 PM AST SAT APR 21 2018

PRZ001>002-007>008-010-211800-
PUERTO RICO

CITY           SKY/WX    TMP DP  RH WIND       PRES   REMARKS
SAN JUAN LMM   MOSUNNY   82  73  74 E21       30.04F
AGUADILLA      MOSUNNY   82  72  69 E20       30.04F
CEIBA          MOSUNNY  N/A N/A N/A E17       30.06
$$

VIZ001>002-211800-
U.S. VIRGIN ISLANDS

CITY           SKY/WX    TMP DP  RH WIND       PRES   REMARKS
CHARLOTTE AMA  MOSUNNY   88  70  55 E21G29    30.03  HX  92
CHRISTIANSTED  MOSUNNY   88  72  58 E21G28    30.04F HX  94
$$

HOURLY WEATHER ROUNDUP FOR THE NEWS MEDIA

CITY           SKY/WX    TMP DP  RH WIND       PRES   REMARKS
ORLANDO        LGT RAIN  80  69  69 E17       30.17F
NEW YORK       FAIR      56  22  26 NW14G26   30.36F
NEWARK         PTSUNNY   58  29  33 NW10G24   30.36F
CHICAGO        CLOUDY    50  25  37 NE3       30.43F
HARTFORD       FAIR      54  25  32 W14       30.26F
DALLAS         LGT RAIN  60  56  86 S13       29.97S FOG
PHILADELPHIA   PTSUNNY   54  23  30 W5        30.41F
LOS ANGELES    FAIR      70  48  45 SE6       30.06F
WASHINGTON DC  PTSUNNY   54  28  36 VRB6      30.43F



USA.gov is the U.S. government's official web portal to all federal, state and local government web resources and services.